Find Starlink 3267

NORAD ID: 50197 Int'l Des: 2021-125 Owner: SPXS Country: US Constellation: starlink operational
LEOCIRCULAR

实时位置

正在加载3D地球...

关于 Starlink 3267

正在加载描述...

即将过境

Passes for default location (London). Set your location on the main map for personalized predictions.

高度历史

Loading altitude history...

两行轨道根数

1 50197U 21125AT 26106.84689046 -.00000478 00000-0 -11928-4 0 9999
2 50197 53.2176 67.8247 0001369 87.4965 272.6184 15.08837505242549
Epoch: Apr 16, 2026 • Age: 9 hours

当前状态

高度 558.1 km
速度 7.58 km/s
星下点 -50.48°S, 73.36°E
发射日期 Dec 18, 2021
运行时间 4.3 years
类型 internet

技术详情

分类 Payload
质量 290.00 kg
干质量 270.00 kg
总质量 290.00 kg
长度 0.20 m
直径 2.80 m
跨度 9.00 m
形状 Box + pan
制造商 SPXS
平台类型 Starlink
阶段状态 In Orbit
所有者/国家 SPXS/US

Most Searched